VOYAGER:1:PRINTED,ON:,1-OCT-01:16:45:08:V179062S08
START_TIME,STOP_TIME,SECTOR,SCAN_DIR,P1RATE,P1UNC,P10RATE,P10UNC,P11RATE,P11UNC,M6RATE,M6UNC,M7RATE,M7UNC
1979-03-03 00:00:11.980 ,1979-03-03 00:00:17.920 ,3,1,1.25,0.510,1.25,0.510,2.08,0.466,8.333E-02,8.333E-02,0.000E+00,0.000E+00
1979-03-03 00:00:18.350 ,1979-03-03 00:00:41.920 ,4,1,6.89,0.549,3.24,0.387,4.32,0.474,1.83,0.276,0.000E+00,0.000E+00
1979-03-03 00:00:42.350 ,1979-03-03 00:01:05.920 ,5,1,14.5,0.796,4.74,0.455,4.32,0.474,5.75,0.489,0.000E+00,0.000E+00
1979-03-03 00:01:06.350 ,1979-03-03 00:01:29.920 ,6,1,13.5,0.768,5.42,0.500,4.22,0.469,6.83,0.533,0.000E+00,0.000E+00
1979-03-03 00:01:30.350 ,1979-03-03 00:01:53.920 ,7,1,15.7,0.851,4.03,0.432,3.85,0.447,7.00,0.539,0.000E+00,0.000E+00
1979-03-03 00:01:54.350 ,1979-03-03 00:02:35.920 ,8,1,0.000E+00,0.000E+00,7.576E-02,4.374E-02,0.868,0.174,0.222,7.854E-02,0.000E+00,0.000E+00
1979-03-03 00:02:35.980 ,1979-03-03 00:02:41.540 ,8,-1,0.000E+00,0.000E+00,0.000E+00,0.000E+00,0.833,0.417,0.000E+00,0.000E+00,0.000E+00,0.000E+00
1979-03-03 00:02:42.350 ,1979-03-03 00:03:05.920 ,7,-1,15.8,0.853,5.05,0.483,4.51,0.559,-1.00,-1.00,0.000E+00,0.000E+00
1979-03-03 00:03:06.350 ,1979-03-03 00:03:29.920 ,6,-1,16.2,0.842,4.69,0.453,5.26,0.523,9.83,0.905,0.000E+00,0.000E+00
1979-03-03 00:03:30.350 ,1979-03-03 00:03:53.920 ,5,-1,15.0,0.811,4.34,0.436,4.17,0.465,3.67,0.552,0.000E+00,0.000E+00
1979-03-03 00:03:54.350 ,1979-03-03 00:04:17.920 ,4,-1,8.47,0.626,3.06,0.376,4.17,0.465,1.83,0.391,0.000E+00,0.000E+00
1979-03-03 00:04:18.350 ,1979-03-03 00:04:41.920 ,3,-1,10.0,0.662,1.20,0.236,3.96,0.454,0.333,0.167,0.000E+00,0.000E+00
1979-03-03 00:04:42.350 ,1979-03-03 00:05:05.920 ,2,-1,11.8,0.737,1.06,0.222,3.96,0.454,8.333E-02,8.333E-02,0.000E+00,0.000E+00
1979-03-03 00:05:05.980 ,1979-03-03 00:05:30.350 ,1,-1,9.52,1.06,2.98,0.595,3.75,0.442,1.56,0.208,0.000E+00,0.000E+00
1979-03-03 00:05:30.350 ,1979-03-03 00:05:53.920 ,1,1,12.3,0.753,2.63,0.340,3.13,0.403,1.33,0.333,0.000E+00,0.000E+00
1979-03-03 00:05:54.350 ,1979-03-03 00:06:17.920 ,2,1,5.13,0.474,0.614,0.164,3.02,0.396,0.000E+00,0.000E+00,0.000E+00,0.000E+00
1979-03-03 00:06:18.350 ,1979-03-03 00:06:41.920 ,3,1,5.83,0.505,1.75,0.277,2.66,0.372,0.250,0.144,0.000E+00,0.000E+00
1979-03-03 00:06:42.350 ,1979-03-03 00:07:05.920 ,4,1,9.08,0.630,2.28,0.316,3.18,0.407,2.58,0.464,0.000E+00,0.000E+00
1979-03-03 00:07:06.360 ,1979-03-03 00:07:29.920 ,5,1,11.4,0.705,5.56,0.507,3.39,0.419,4.58,0.617,0.000E+00,0.000E+00
1979-03-03 00:07:30.360 ,1979-03-03 00:07:53.920 ,6,1,12.8,0.748,6.16,0.533,5.21,0.521,6.67,0.745,0.000E+00,0.000E+00
1979-03-03 00:07:54.360 ,1979-03-03 00:08:17.920 ,7,1,7.87,0.603,6.05,0.514,4.06,0.460,6.50,0.735,0.000E+00,0.000E+00
1979-03-03 00:08:18.360 ,1979-03-03 00:08:59.920 ,8,1,0.000E+00,0.000E+00,0.000E+00,0.000E+00,0.833,0.170,0.000E+00,0.000E+00,0.000E+00,0.000E+00
1979-03-03 00:08:59.980 ,1979-03-03 00:09:05.920 ,8,-1,0.000E+00,0.000E+00,0.000E+00,0.000E+00,0.938,0.312,0.000E+00,0.000E+00,0.000E+00,0.000E+00
1979-03-03 00:09:06.350 ,1979-03-03 00:09:29.920 ,7,-1,6.25,0.537,4.35,0.449,5.56,0.621,-1.00,-1.00,0.000E+00,0.000E+00
1979-03-03 00:09:30.350 ,1979-03-03 00:09:53.920 ,6,-1,5.19,0.489,6.05,0.514,5.21,0.521,6.50,0.735,0.000E+00,0.000E+00
1979-03-03 00:09:54.350 ,1979-03-03 00:10:17.920 ,5,-1,7.68,0.579,3.64,0.399,4.43,0.480,4.08,0.583,0.000E+00,0.000E+00
1979-03-03 00:10:18.350 ,1979-03-03 00:10:41.920 ,4,-1,3.94,0.427,2.59,0.337,2.97,0.393,1.50,0.353,0.000E+00,0.000E+00
1979-03-03 00:10:42.350 ,1979-03-03 00:11:05.920 ,3,-1,1.32,0.240,0.263,0.107,2.71,0.375,0.000E+00,0.000E+00,0.000E+00,0.000E+00
1979-03-03 00:11:06.350 ,1979-03-03 00:11:29.920 ,2,-1,0.965,0.206,0.351,0.124,2.19,0.337,0.000E+00,0.000E+00,0.000E+00,0.000E+00
1979-03-03 00:11:29.980 ,1979-03-03 00:11:54.350 ,1,-1,5.48,0.807,2.50,0.589,1.77,0.304,0.833,0.152,0.000E+00,0.000E+00
1979-03-03 00:11:54.350 ,1979-03-03 00:12:17.920 ,1,1,7.19,0.561,1.57,0.277,2.76,0.379,0.917,0.276,0.000E+00,0.000E+00
1979-03-03 00:12:18.350 ,1979-03-03 00:12:41.920 ,2,1,0.648,0.173,0.219,9.807E-02,1.09,0.239,0.000E+00,0.000E+00,0.000E+00,0.000E+00
1979-03-03 00:12:42.350 ,1979-03-03 00:13:05.920 ,3,1,0.614,0.164,0.351,0.124,1.20,0.250,0.000E+00,0.000E+00,0.000E+00,0.000E+00
1979-03-03 00:13:06.350 ,1979-03-03 00:13:29.920 ,4,1,2.84,0.373,1.93,0.291,2.19,0.337,1.08,0.300,0.000E+00,0.000E+00
1979-03-03 00:13:30.350 ,1979-03-03 00:13:53.920 ,5,1,4.78,0.458,2.31,0.327,2.40,0.353,3.83,0.565,0.000E+00,0.000E+00
1979-03-03 00:13:54.350 ,1979-03-03 00:14:17.920 ,6,1,3.99,0.418,1.76,0.285,3.49,0.426,5.67,0.687,0.000E+00,0.000E+00
1979-03-03 00:14:18.350 ,1979-03-03 00:14:41.920 ,7,1,3.01,0.373,1.32,0.240,3.39,0.419,5.83,0.696,0.000E+00,0.000E+00
1979-03-03 00:14:42.350 ,1979-03-03 00:15:23.920 ,8,1,0.000E+00,0.000E+00,2.525E-02,2.525E-02,0.417,0.120,0.000E+00,0.000E+00,0.000E+00,0.000E+00
1979-03-03 00:15:23.980 ,1979-03-03 00:15:29.920 ,8,-1,0.000E+00,0.000E+00,0.000E+00,0.000E+00,0.000E+00,0.000E+00,0.000E+00,0.000E+00,0.000E+00,0.000E+00
1979-03-03 00:15:30.350 ,1979-03-03 00:15:53.920 ,7,-1,0.877,0.196,0.789,0.186,2.43,0.411,-1.00,-1.00,8.333E-02,8.333E-02
1979-03-03 00:15:54.350 ,1979-03-03 00:16:17.920 ,6,-1,1.10,0.219,1.10,0.219,2.50,0.361,6.33,0.726,0.000E+00,0.000E+00
1979-03-03 00:16:18.350 ,1979-03-03 00:16:41.920 ,5,-1,1.54,0.259,2.41,0.325,2.50,0.361,2.75,0.479,0.000E+00,0.000E+00
1979-03-03 00:16:42.350 ,1979-03-03 00:17:05.920 ,4,-1,0.965,0.206,1.89,0.287,1.93,0.317,0.750,0.250,0.000E+00,0.000E+00
1979-03-03 00:17:06.350 ,1979-03-03 00:17:29.920 ,3,-1,0.877,0.196,0.509,0.153,0.625,0.180,0.000E+00,0.000E+00,0.000E+00,0.000E+00
1979-03-03 00:17:30.350 ,1979-03-03 00:17:53.920 ,2,-1,0.921,0.201,0.702,0.175,0.625,0.180,0.000E+00,0.000E+00,0.000E+00,0.000E+00
1979-03-03 00:17:53.980 ,1979-03-03 00:18:18.350 ,1,-1,1.31,0.395,1.25,0.417,2.76,0.379,0.500,0.118,0.000E+00,0.000E+00
1979-03-03 00:18:18.350 ,1979-03-03 00:18:41.920 ,1,1,0.658,0.170,2.04,0.307,1.72,0.299,0.500,0.204,0.000E+00,0.000E+00
1979-03-03 00:18:42.350 ,1979-03-03 00:19:05.920 ,2,1,1.40,0.248,0.570,0.158,1.04,0.233,0.000E+00,0.000E+00,0.000E+00,0.000E+00
1979-03-03 00:19:06.350 ,1979-03-03 00:19:29.920 ,3,1,0.833,0.191,0.307,0.116,1.09,0.239,0.000E+00,0.000E+00,0.000E+00,0.000E+00
1979-03-03 00:19:30.350 ,1979-03-03 00:19:53.920 ,4,1,0.746,0.181,1.67,0.278,1.82,0.308,1.00,0.289,0.000E+00,0.000E+00
1979-03-03 00:19:54.350 ,1979-03-03 00:20:17.920 ,5,1,1.36,0.244,2.54,0.334,2.24,0.341,1.92,0.400,0.000E+00,0.000E+00
1979-03-03 00:20:18.350 ,1979-03-03 00:20:41.920 ,6,1,1.10,0.219,0.877,0.196,2.76,0.379,4.33,0.601,0.000E+00,0.000E+00
1979-03-03 00:20:42.350 ,1979-03-03 00:21:05.920 ,7,1,0.833,0.191,0.746,0.181,2.76,0.379,4.00,0.577,0.000E+00,0.000E+00
1979-03-03 00:21:06.350 ,1979-03-03 00:21:47.920 ,8,1,0.000E+00,0.000E+00,5.051E-02,3.571E-02,0.278,9.818E-02,0.000E+00,0.000E+00,0.000E+00,0.000E+00
1979-03-03 00:21:47.980 ,1979-03-03 00:21:53.920 ,8,-1,0.000E+00,0.000E+00,0.000E+00,0.000E+00,0.313,0.180,0.000E+00,0.000E+00,0.000E+00,0.000E+00
1979-03-03 00:21:54.350 ,1979-03-03 00:22:17.920 ,7,-1,0.658,0.170,0.658,0.170,1.77,0.304,2.33,0.441,0.000E+00,0.000E+00
1979-03-03 00:22:18.350 ,1979-03-03 00:22:41.920 ,6,-1,0.833,0.191,0.746,0.181,2.50,0.361,3.17,0.514,0.000E+00,0.000E+00
1979-03-03 00:22:42.350 ,1979-03-03 00:23:05.920 ,5,-1,1.30,0.245,2.13,0.314,3.07,0.400,1.42,0.344,0.000E+00,0.000E+00
1979-03-03 00:23:06.350 ,1979-03-03 00:23:29.920 ,4,-1,0.746,0.181,1.40,0.248,1.35,0.266,0.583,0.220,0.000E+00,0.000E+00
1979-03-03 00:23:30.350 ,1979-03-03 00:23:53.920 ,3,-1,1.05,0.215,4.386E-02,4.386E-02,0.781,0.202,0.000E+00,0.000E+00,0.000E+00,0.000E+00
1979-03-03 00:23:54.350 ,1979-03-03 00:24:17.920 ,2,-1,1.06,0.222,0.139,8.019E-02,0.677,0.188,0.000E+00,0.000E+00,0.000E+00,0.000E+00
1979-03-03 00:24:17.980 ,1979-03-03 00:24:42.350 ,1,-1,1.07,0.357,2.02,0.491,2.29,0.345,0.278,8.780E-02,0.000E+00,0.000E+00
1979-03-03 00:24:42.350 ,1979-03-03 00:25:05.920 ,1,1,1.01,0.210,2.24,0.313,2.14,0.333,0.417,0.186,0.000E+00,0.000E+00
1979-03-03 00:25:06.350 ,1979-03-03 00:25:23.920 ,2,1,1.13,0.259,0.179,0.103,0.937,0.312,-1.00,-1.00,-1.00,-1.00
1979-03-03 00:25:23.980 ,1979-03-03 00:25:47.980 ,9,0,0.877,0.196,0.307,0.116,0.833,0.186,0.000E+00,0.000E+00,0.000E+00,0.000E+00
1979-03-03 00:25:47.980 ,1979-03-03 00:26:11.980 ,9,0,1.08,0.212,0.333,0.118,1.33,0.236,0.125,7.217E-02,0.000E+00,0.000E+00
1979-03-03 00:26:11.980 ,1979-03-03 00:26:17.920 ,4,1,1.00,0.408,0.333,0.236,0.729,0.275,0.250,0.144,0.000E+00,0.000E+00
1979-03-03 00:26:18.350 ,1979-03-03 00:26:41.920 ,5,1,1.32,0.240,2.85,0.353,2.43,0.411,1.67,0.263,0.000E+00,0.000E+00
1979-03-03 00:26:42.350 ,1979-03-03 00:27:05.920 ,6,1,0.482,0.145,1.27,0.236,2.55,0.364,2.79,0.341,0.000E+00,0.000E+00
1979-03-03 00:27:06.350 ,1979-03-03 00:27:29.920 ,7,1,0.614,0.164,1.01,0.210,2.34,0.349,4.25,0.420,0.000E+00,0.000E+00
1979-03-03 00:27:30.350 ,1979-03-03 00:28:11.920 ,8,1,0.000E+00,0.000E+00,0.101,5.051E-02,0.243,9.183E-02,0.167,6.802E-02,0.000E+00,0.000E+00
1979-03-03 00:28:11.980 ,1979-03-03 00:28:17.920 ,8,-1,0.000E+00,0.000E+00,0.000E+00,0.000E+00,0.313,0.180,0.000E+00,0.000E+00,0.000E+00,0.000E+00
1979-03-03 00:28:18.350 ,1979-03-03 00:28:41.920 ,7,-1,0.570,0.158,1.06,0.222,2.24,0.341,-1.00,-1.00,0.000E+00,0.000E+00
1979-03-03 00:28:42.350 ,1979-03-03 00:29:05.920 ,6,-1,0.877,0.196,1.14,0.224,2.66,0.372,2.83,0.486,0.000E+00,0.000E+00
1979-03-03 00:29:06.350 ,1979-03-03 00:29:29.920 ,5,-1,1.14,0.224,2.15,0.307,2.60,0.368,1.75,0.382,0.000E+00,0.000E+00
1979-03-03 00:29:30.350 ,1979-03-03 00:29:53.920 ,4,-1,0.833,0.191,0.570,0.158,1.20,0.250,0.250,0.144,0.000E+00,0.000E+00
1979-03-03 00:29:54.350 ,1979-03-03 00:30:17.920 ,3,-1,0.746,0.181,0.307,0.116,0.625,0.180,0.000E+00,0.000E+00,0.000E+00,0.000E+00
1979-03-03 00:30:18.350 ,1979-03-03 00:30:41.920 ,2,-1,0.702,0.175,0.132,7.597E-02,0.833,0.208,0.000E+00,0.000E+00,0.000E+00,0.000E+00
1979-03-03 00:30:41.980 ,1979-03-03 00:31:06.350 ,1,-1,0.476,0.238,0.139,0.139,1.20,0.250,0.167,6.802E-02,2.778E-02,2.778E-02
1979-03-03 00:31:06.350 ,1979-03-03 00:31:29.920 ,1,1,0.965,0.206,0.877,0.196,1.20,0.250,8.333E-02,8.333E-02,0.000E+00,0.000E+00
1979-03-03 00:31:30.350 ,1979-03-03 00:31:53.920 ,2,1,0.965,0.206,0.175,8.772E-02,1.25,0.255,0.000E+00,0.000E+00,0.000E+00,0.000E+00
1979-03-03 00:31:54.350 ,1979-03-03 00:32:17.920 ,3,1,0.921,0.201,0.175,8.772E-02,0.938,0.221,8.333E-02,8.333E-02,0.000E+00,0.000E+00
1979-03-03 00:32:18.350 ,1979-03-03 00:32:41.920 ,4,1,0.877,0.196,0.307,0.116,1.35,0.266,0.417,0.186,0.000E+00,0.000E+00
1979-03-03 00:32:42.350 ,1979-03-03 00:33:05.920 ,5,1,0.877,0.196,2.02,0.297,2.92,0.390,1.08,0.300,0.000E+00,0.000E+00
1979-03-03 00:33:06.350 ,1979-03-03 00:33:29.920 ,6,1,0.877,0.196,1.05,0.215,1.67,0.295,2.42,0.449,0.000E+00,0.000E+00
1979-03-03 00:33:30.350 ,1979-03-03 00:33:53.920 ,7,1,0.482,0.145,0.570,0.158,2.76,0.379,3.75,0.559,0.000E+00,0.000E+00
1979-03-03 00:33:54.350 ,1979-03-03 00:34:35.920 ,8,1,0.000E+00,0.000E+00,5.051E-02,3.571E-02,0.382,0.115,0.000E+00,0.000E+00,0.000E+00,0.000E+00
1979-03-03 00:34:35.980 ,1979-03-03 00:34:41.920 ,8,-1,0.000E+00,0.000E+00,0.000E+00,0.000E+00,0.313,0.180,0.000E+00,0.000E+00,0.000E+00,0.000E+00
1979-03-03 00:34:42.350 ,1979-03-03 00:35:05.920 ,7,-1,0.789,0.186,0.417,0.139,1.82,0.308,-1.00,-1.00,0.000E+00,0.000E+00
1979-03-03 00:35:06.350 ,1979-03-03 00:35:29.920 ,6,-1,0.702,0.175,0.614,0.164,2.97,0.393,3.00,0.500,0.000E+00,0.000E+00
1979-03-03 00:35:30.350 ,1979-03-03 00:35:53.920 ,5,-1,0.694,0.179,1.58,0.263,3.23,0.410,1.50,0.353,0.000E+00,0.000E+00
1979-03-03 00:35:54.350 ,1979-03-03 00:36:17.920 ,4,-1,1.20,0.236,0.482,0.145,0.833,0.208,0.500,0.204,0.000E+00,0.000E+00
1979-03-03 00:36:18.350 ,1979-03-03 00:36:41.920 ,3,-1,0.702,0.175,4.386E-02,4.386E-02,0.729,0.195,0.000E+00,0.000E+00,0.000E+00,0.000E+00
1979-03-03 00:36:42.350 ,1979-03-03 00:37:05.920 ,2,-1,1.14,0.224,0.132,7.597E-02,0.833,0.208,0.000E+00,0.000E+00,0.000E+00,0.000E+00
1979-03-03 00:37:05.980 ,1979-03-03 00:37:30.350 ,1,-1,1.55,0.429,0.238,0.168,1.51,0.280,0.222,7.854E-02,0.000E+00,0.000E+00
1979-03-03 00:37:30.350 ,1979-03-03 00:37:53.920 ,1,1,0.789,0.186,1.06,0.222,1.15,0.244,0.167,0.118,0.000E+00,0.000E+00
1979-03-03 00:37:54.350 ,1979-03-03 00:38:17.920 ,2,1,0.789,0.186,0.132,7.597E-02,0.833,0.208,0.000E+00,0.000E+00,0.000E+00,0.000E+00
1979-03-03 00:38:18.350 ,1979-03-03 00:38:41.920 ,3,1,0.921,0.201,0.263,0.107,0.729,0.195,0.000E+00,0.000E+00,0.000E+00,0.000E+00
1979-03-03 00:38:42.350 ,1979-03-03 00:39:05.920 ,4,1,1.05,0.215,0.526,0.152,1.41,0.270,0.333,0.167,0.000E+00,0.000E+00
1979-03-03 00:39:06.350 ,1979-03-03 00:39:29.920 ,5,1,0.658,0.170,1.25,0.240,2.55,0.364,1.83,0.391,0.000E+00,0.000E+00
1979-03-03 00:39:30.350 ,1979-03-03 00:39:53.920 ,6,1,0.526,0.152,0.482,0.145,2.60,0.368,3.42,0.533,0.000E+00,0.000E+00
1979-03-03 00:39:54.350 ,1979-03-03 00:40:17.920 ,7,1,0.833,0.191,0.746,0.181,3.12,0.403,2.25,0.433,0.000E+00,0.000E+00
1979-03-03 00:40:18.350 ,1979-03-03 00:40:59.920 ,8,1,0.000E+00,0.000E+00,7.576E-02,4.374E-02,0.382,0.115,0.000E+00,0.000E+00,0.000E+00,0.000E+00
1979-03-03 00:40:59.980 ,1979-03-03 00:41:05.920 ,8,-1,0.000E+00,0.000E+00,0.000E+00,0.000E+00,0.208,0.147,0.000E+00,0.000E+00,0.000E+00,0.000E+00
1979-03-03 00:41:06.350 ,1979-03-03 00:41:29.920 ,7,-1,0.702,0.175,0.570,0.158,2.14,0.333,2.50,0.456,0.000E+00,0.000E+00
1979-03-03 00:41:30.350 ,1979-03-03 00:41:53.920 ,6,-1,0.702,0.175,0.614,0.164,2.03,0.325,3.50,0.540,0.000E+00,0.000E+00
1979-03-03 00:41:54.350 ,1979-03-03 00:42:17.920 ,5,-1,0.877,0.196,0.877,0.196,1.98,0.321,1.17,0.312,0.000E+00,0.000E+00
1979-03-03 00:42:18.350 ,1979-03-03 00:42:41.920 ,4,-1,0.965,0.206,0.921,0.201,1.61,0.290,0.417,0.186,0.000E+00,0.000E+00
1979-03-03 00:42:42.350 ,1979-03-03 00:43:05.920 ,3,-1,0.658,0.170,0.175,8.772E-02,1.04,0.233,0.000E+00,0.000E+00,0.000E+00,0.000E+00
1979-03-03 00:43:06.350 ,1979-03-03 00:43:29.920 ,2,-1,1.23,0.232,0.263,0.107,0.677,0.188,0.000E+00,0.000E+00,0.000E+00,0.000E+00
1979-03-03 00:43:29.980 ,1979-03-03 00:43:54.350 ,1,-1,1.07,0.357,0.595,0.266,1.77,0.304,0.167,6.802E-02,0.000E+00,0.000E+00
1979-03-03 00:43:54.350 ,1979-03-03 00:44:17.920 ,1,1,1.36,0.244,0.658,0.170,1.93,0.317,0.167,0.118,0.000E+00,0.000E+00
1979-03-03 00:44:18.350 ,1979-03-03 00:44:41.920 ,2,1,0.877,0.196,8.772E-02,6.202E-02,0.677,0.188,0.000E+00,0.000E+00,0.000E+00,0.000E+00
1979-03-03 00:44:42.350 ,1979-03-03 00:45:05.920 ,3,1,1.10,0.219,0.132,7.597E-02,0.469,0.156,0.000E+00,0.000E+00,0.000E+00,0.000E+00
1979-03-03 00:45:06.350 ,1979-03-03 00:45:29.920 ,4,1,0.921,0.201,0.482,0.145,1.30,0.260,0.417,0.186,0.000E+00,0.000E+00
1979-03-03 00:45:30.350 ,1979-03-03 00:45:53.920 ,5,1,0.921,0.201,0.921,0.201,1.98,0.321,2.25,0.433,0.000E+00,0.000E+00
1979-03-03 00:45:54.350 ,1979-03-03 00:46:17.920 ,6,1,0.965,0.206,1.18,0.228,2.08,0.329,3.58,0.546,0.000E+00,0.000E+00
1979-03-03 00:46:18.350 ,1979-03-03 00:46:41.920 ,7,1,0.482,0.145,0.602,0.167,1.93,0.317,1.33,0.333,0.000E+00,0.000E+00
1979-03-03 00:46:42.350 ,1979-03-03 00:47:23.920 ,8,1,2.525E-02,2.525E-02,5.051E-02,3.571E-02,0.382,0.115,0.000E+00,0.000E+00,0.000E+00,0.000E+00
1979-03-03 00:47:23.980 ,1979-03-03 00:47:29.920 ,8,-1,0.000E+00,0.000E+00,0.000E+00,0.000E+00,0.833,0.295,0.000E+00,0.000E+00,0.000E+00,0.000E+00
1979-03-03 00:47:30.350 ,1979-03-03 00:47:53.920 ,7,-1,0.965,0.206,0.526,0.152,2.66,0.372,1.42,0.344,0.000E+00,0.000E+00
1979-03-03 00:47:54.350 ,1979-03-03 00:48:17.920 ,6,-1,0.702,0.175,0.570,0.158,2.19,0.337,2.58,0.464,0.000E+00,0.000E+00
1979-03-03 00:48:18.350 ,1979-03-03 00:48:41.920 ,5,-1,0.877,0.196,0.588,0.170,2.60,0.368,1.17,0.312,8.333E-02,8.333E-02
1979-03-03 00:48:42.350 ,1979-03-03 00:49:05.920 ,4,-1,0.926,0.207,0.307,0.116,1.51,0.280,0.167,0.118,0.000E+00,0.000E+00
1979-03-03 00:49:06.350 ,1979-03-03 00:49:29.920 ,3,-1,0.787,0.191,0.132,7.597E-02,0.573,0.173,0.000E+00,0.000E+00,0.000E+00,0.000E+00
1979-03-03 00:49:30.350 ,1979-03-03 00:49:53.920 ,2,-1,0.921,0.201,0.175,8.772E-02,0.521,0.165,0.000E+00,0.000E+00,0.000E+00,0.000E+00
1979-03-03 00:49:53.980 ,1979-03-03 00:50:18.350 ,1,-1,0.952,0.337,0.357,0.206,1.61,0.290,0.194,7.346E-02,0.000E+00,0.000E+00
1979-03-03 00:50:18.350 ,1979-03-03 00:50:41.920 ,1,1,1.05,0.215,0.658,0.170,1.41,0.270,0.167,0.118,0.000E+00,0.000E+00
1979-03-03 00:50:42.350 ,1979-03-03 00:51:05.920 ,2,1,1.06,0.222,4.386E-02,4.386E-02,0.417,0.147,0.000E+00,0.000E+00,0.000E+00,0.000E+00
1979-03-03 00:51:06.350 ,1979-03-03 00:51:29.920 ,3,1,0.746,0.181,8.772E-02,6.202E-02,0.885,0.215,0.000E+00,0.000E+00,0.000E+00,0.000E+00
1979-03-03 00:51:30.350 ,1979-03-03 00:51:53.920 ,4,1,0.702,0.175,0.482,0.145,1.41,0.270,8.333E-02,8.333E-02,0.000E+00,0.000E+00
1979-03-03 00:51:54.350 ,1979-03-03 00:52:17.920 ,5,1,0.741,0.185,1.10,0.219,2.08,0.329,1.67,0.373,0.000E+00,0.000E+00
1979-03-03 00:52:18.350 ,1979-03-03 00:52:41.920 ,6,1,0.658,0.170,0.395,0.132,2.03,0.325,3.08,0.507,0.000E+00,0.000E+00
1979-03-03 00:52:42.350 ,1979-03-03 00:53:05.920 ,7,1,0.658,0.170,0.746,0.181,3.28,0.413,1.08,0.300,0.000E+00,0.000E+00
1979-03-03 00:53:06.350 ,1979-03-03 00:53:47.920 ,8,1,0.000E+00,0.000E+00,5.051E-02,3.571E-02,0.486,0.130,0.000E+00,0.000E+00,0.000E+00,0.000E+00
1979-03-03 00:53:47.980 ,1979-03-03 00:53:53.920 ,8,-1,0.000E+00,0.000E+00,0.167,0.167,0.417,0.208,0.000E+00,0.000E+00,0.000E+00,0.000E+00
1979-03-03 00:53:54.350 ,1979-03-03 00:54:17.920 ,7,-1,0.741,0.185,0.614,0.164,2.71,0.375,1.00,0.289,0.000E+00,0.000E+00
1979-03-03 00:54:18.350 ,1979-03-03 00:54:41.920 ,6,-1,1.01,0.210,0.570,0.158,2.14,0.333,1.50,0.353,0.000E+00,0.000E+00
1979-03-03 00:54:42.350 ,1979-03-03 00:55:05.920 ,5,-1,0.789,0.186,1.05,0.215,2.14,0.333,1.58,0.363,0.000E+00,0.000E+00
1979-03-03 00:55:06.350 ,1979-03-03 00:55:29.920 ,4,-1,0.789,0.186,0.132,7.597E-02,1.04,0.233,0.000E+00,0.000E+00,0.000E+00,0.000E+00
1979-03-03 00:55:30.350 ,1979-03-03 00:55:53.920 ,3,-1,0.741,0.185,0.185,9.259E-02,0.781,0.202,0.000E+00,0.000E+00,0.000E+00,0.000E+00
1979-03-03 00:55:54.350 ,1979-03-03 00:56:17.920 ,2,-1,1.05,0.215,0.219,9.807E-02,0.625,0.180,0.000E+00,0.000E+00,0.000E+00,0.000E+00
1979-03-03 00:56:17.980 ,1979-03-03 00:56:42.350 ,1,-1,0.595,0.266,0.476,0.238,2.14,0.333,2.778E-02,2.778E-02,0.000E+00,0.000E+00
1979-03-03 00:56:42.350 ,1979-03-03 00:57:05.920 ,1,1,1.05,0.215,0.526,0.152,1.46,0.275,0.000E+00,0.000E+00,0.000E+00,0.000E+00
1979-03-03 00:57:06.350 ,1979-03-03 00:57:29.920 ,2,1,0.648,0.173,0.132,7.597E-02,0.833,0.208,0.000E+00,0.000E+00,0.000E+00,0.000E+00
1979-03-03 00:57:30.350 ,1979-03-03 00:57:53.920 ,3,1,0.833,0.191,0.132,7.597E-02,0.885,0.215,0.000E+00,0.000E+00,0.000E+00,0.000E+00
1979-03-03 00:57:54.350 ,1979-03-03 00:58:17.920 ,4,1,0.789,0.186,0.395,0.132,1.04,0.233,0.167,0.118,0.000E+00,0.000E+00
1979-03-03 00:58:18.350 ,1979-03-03 00:58:41.920 ,5,1,1.18,0.228,0.570,0.158,2.34,0.349,1.00,0.289,0.000E+00,0.000E+00
1979-03-03 00:58:42.350 ,1979-03-03 00:59:05.920 ,6,1,0.787,0.191,0.877,0.196,2.81,0.382,0.917,0.276,0.000E+00,0.000E+00
1979-03-03 00:59:06.350 ,1979-03-03 00:59:29.920 ,7,1,0.746,0.181,0.351,0.124,2.55,0.364,0.917,0.276,8.333E-02,8.333E-02
1979-03-03 00:59:30.350 ,1979-03-03 00:00:11.920 ,8,1,0.000E+00,0.000E+00,2.525E-02,2.525E-02,0.451,0.125,0.000E+00,0.000E+00,0.000E+00,0.000E+00
1979-03-03 01:00:11.980 ,1979-03-03 01:00:17.920 ,8,-1,0.000E+00,0.000E+00,0.167,0.167,1.04,0.329,0.000E+00,0.000E+00,0.000E+00,0.000E+00
1979-03-03 01:00:18.350 ,1979-03-03 01:00:41.920 ,7,-1,0.921,0.201,1.10,0.219,2.50,0.361,1.08,0.300,0.000E+00,0.000E+00
1979-03-03 01:00:42.350 ,1979-03-03 01:01:05.920 ,6,-1,0.965,0.206,0.702,0.175,2.97,0.393,1.33,0.333,0.000E+00,0.000E+00
1979-03-03 01:01:06.360 ,1979-03-03 01:01:29.920 ,5,-1,1.32,0.240,1.10,0.219,2.60,0.368,1.33,0.333,0.000E+00,0.000E+00
1979-03-03 01:01:30.360 ,1979-03-03 01:01:53.920 ,4,-1,0.877,0.196,0.395,0.132,1.41,0.270,0.167,0.118,0.000E+00,0.000E+00
1979-03-03 01:01:54.360 ,1979-03-03 01:02:17.920 ,3,-1,0.833,0.191,0.263,0.107,0.625,0.180,0.000E+00,0.000E+00,0.000E+00,0.000E+00
1979-03-03 01:02:18.350 ,1979-03-03 01:02:41.920 ,2,-1,0.926,0.207,0.175,8.772E-02,0.625,0.180,0.000E+00,0.000E+00,0.000E+00,0.000E+00
1979-03-03 01:02:41.980 ,1979-03-03 01:03:06.350 ,1,-1,0.833,0.315,0.595,0.266,1.25,0.255,8.333E-02,4.811E-02,0.000E+00,0.000E+00
1979-03-03 01:03:06.350 ,1979-03-03 01:03:29.920 ,1,1,0.965,0.206,0.439,0.139,1.87,0.312,0.167,0.118,0.000E+00,0.000E+00
1979-03-03 01:03:30.350 ,1979-03-03 01:03:53.920 ,2,1,0.787,0.191,9.259E-02,6.547E-02,0.833,0.208,0.000E+00,0.000E+00,0.000E+00,0.000E+00
1979-03-03 01:03:54.350 ,1979-03-03 01:04:17.920 ,3,1,0.482,0.145,0.307,0.116,1.04,0.233,0.000E+00,0.000E+00,0.000E+00,0.000E+00
1979-03-03 01:04:18.360 ,1979-03-03 01:04:41.920 ,4,1,0.833,0.191,0.307,0.116,1.09,0.239,8.333E-02,8.333E-02,0.000E+00,0.000E+00
1979-03-03 01:04:42.360 ,1979-03-03 01:05:05.920 ,5,1,1.27,0.236,0.921,0.201,2.81,0.382,1.58,0.363,0.000E+00,0.000E+00
1979-03-03 01:05:06.360 ,1979-03-03 01:05:29.920 ,6,1,0.877,0.196,0.702,0.175,2.55,0.364,1.08,0.300,0.000E+00,0.000E+00
1979-03-03 01:05:30.360 ,1979-03-03 01:05:53.920 ,7,1,0.482,0.145,0.395,0.132,2.29,0.345,0.667,0.236,0.000E+00,0.000E+00
1979-03-03 01:05:54.360 ,1979-03-03 01:06:35.920 ,8,1,0.000E+00,0.000E+00,0.101,5.051E-02,0.451,0.125,0.000E+00,0.000E+00,0.000E+00,0.000E+00
1979-03-03 01:06:35.980 ,1979-03-03 01:06:41.920 ,8,-1,0.000E+00,0.000E+00,0.000E+00,0.000E+00,0.417,0.208,0.000E+00,0.000E+00,0.000E+00,0.000E+00
1979-03-03 01:06:42.360 ,1979-03-03 01:07:05.920 ,7,-1,0.921,0.201,0.439,0.139,2.14,0.333,0.667,0.236,0.000E+00,0.000E+00
1979-03-03 01:07:06.360 ,1979-03-03 01:07:29.920 ,6,-1,1.54,0.259,0.965,0.206,2.29,0.345,1.67,0.373,0.000E+00,0.000E+00
1979-03-03 01:07:30.360 ,1979-03-03 01:07:53.920 ,5,-1,1.05,0.215,0.702,0.175,2.29,0.345,1.08,0.300,0.000E+00,0.000E+00
1979-03-03 01:07:54.360 ,1979-03-03 01:08:17.920 ,4,-1,1.10,0.219,8.772E-02,6.202E-02,1.15,0.244,0.333,0.167,0.000E+00,0.000E+00
1979-03-03 01:08:18.360 ,1979-03-03 01:08:41.920 ,3,-1,0.526,0.152,0.175,8.772E-02,0.729,0.195,0.000E+00,0.000E+00,0.000E+00,0.000E+00
1979-03-03 01:08:42.350 ,1979-03-03 01:09:05.920 ,2,-1,0.658,0.170,0.351,0.124,0.833,0.208,0.000E+00,0.000E+00,0.000E+00,0.000E+00
1979-03-03 01:09:05.980 ,1979-03-03 01:09:30.350 ,1,-1,0.595,0.266,0.357,0.206,1.30,0.260,2.778E-02,2.778E-02,0.000E+00,0.000E+00
1979-03-03 01:09:30.350 ,1979-03-03 01:09:53.920 ,1,1,1.02,0.217,0.175,8.772E-02,2.08,0.329,0.000E+00,0.000E+00,0.000E+00,0.000E+00
1979-03-03 01:09:54.350 ,1979-03-03 01:10:17.920 ,2,1,0.741,0.185,0.175,8.772E-02,0.677,0.188,0.000E+00,0.000E+00,0.000E+00,0.000E+00
1979-03-03 01:10:18.350 ,1979-03-03 01:10:41.920 ,3,1,0.833,0.196,0.395,0.132,0.990,0.227,0.000E+00,0.000E+00,0.000E+00,0.000E+00
1979-03-03 01:10:42.350 ,1979-03-03 01:11:05.920 ,4,1,1.93,0.291,0.351,0.124,1.15,0.244,0.333,0.167,0.000E+00,0.000E+00
1979-03-03 01:11:06.350 ,1979-03-03 01:11:29.920 ,5,1,1.40,0.248,0.789,0.186,2.60,0.368,0.833,0.263,0.000E+00,0.000E+00
1979-03-03 01:11:30.350 ,1979-03-03 01:11:53.920 ,6,1,1.49,0.256,0.694,0.179,2.24,0.341,0.667,0.236,0.000E+00,0.000E+00
1979-03-03 01:11:54.350 ,1979-03-03 01:12:17.920 ,7,1,0.965,0.206,0.746,0.181,3.49,0.426,1.00,0.289,0.000E+00,0.000E+00
1979-03-03 01:12:18.350 ,1979-03-03 01:12:59.920 ,8,1,0.000E+00,0.000E+00,5.051E-02,3.571E-02,0.521,0.134,0.000E+00,0.000E+00,0.000E+00,0.000E+00
1979-03-03 01:12:59.980 ,1979-03-03 01:13:05.920 ,8,-1,0.000E+00,0.000E+00,0.167,0.167,0.521,0.233,0.000E+00,0.000E+00,0.000E+00,0.000E+00
1979-03-03 01:13:06.350 ,1979-03-03 01:13:29.920 ,7,-1,1.36,0.244,0.789,0.186,2.19,0.337,0.417,0.186,0.000E+00,0.000E+00
1979-03-03 01:13:30.350 ,1979-03-03 01:13:53.920 ,6,-1,0.965,0.206,0.921,0.201,2.40,0.353,0.250,0.144,0.000E+00,0.000E+00